﻿_id,日時,平均風速(m/s),平均風向,最大瞬間風速(m/s),最大風速時風向,気温(℃),湿度(%),10分間移動積算雨量(mm),1時間移動積算雨量(mm),日雨量(mm),累計雨量(mm)
1,2022-05-02T00:00:00,0.1,静穏,0.6,南南東,7.5,93,0,0,4,4
2,2022-05-02T00:01:00,0.1,静穏,0.6,南南東,7.5,93.1,0,0,0,4
3,2022-05-02T00:02:00,0.1,静穏,0.6,南南東,7.5,92.9,0,0,0,4
4,2022-05-02T00:03:00,0.1,静穏,0.6,南南東,7.5,92.9,0,0,0,4
5,2022-05-02T00:04:00,0.1,静穏,0.4,南西,7.4,92.7,0,0,0,4
6,2022-05-02T00:05:00,0.1,静穏,0.4,南西,7.5,93.2,0,0,0,4
7,2022-05-02T00:06:00,0.1,静穏,0.4,南西,7.5,93.3,0,0,0,4
8,2022-05-02T00:07:00,0.1,静穏,0.4,南西,7.3,92.5,0,0,0,4
9,2022-05-02T00:08:00,0.1,静穏,0.4,南西,7.3,92.5,0,0,0,4
10,2022-05-02T00:09:00,0.1,静穏,0.4,南西,7.2,92.6,0,0,0,4
11,2022-05-02T00:10:00,0.1,静穏,0.4,南西,7.3,93,0,0,0,4
12,2022-05-02T00:11:00,0.1,静穏,0.4,南西,7.3,93.1,0,0,0,4
13,2022-05-02T00:12:00,0.1,静穏,0.4,南西,7.1,92.5,0,0,0,4
14,2022-05-02T00:13:00,0.2,静穏,0.6,東北東,7,92.3,0,0,0,4
15,2022-05-02T00:14:00,0.2,静穏,0.6,東北東,7,92.6,0,0,0,4
16,2022-05-02T00:15:00,0.2,静穏,0.6,東北東,7,93,0,0,0,4
17,2022-05-02T00:16:00,0.2,静穏,0.6,東北東,7.2,93.5,0,0,0,4
18,2022-05-02T00:17:00,0.2,静穏,0.6,東北東,7.4,94.7,0,0,0,4
19,2022-05-02T00:18:00,0.2,静穏,0.6,東北東,7.2,94,0,0,0,4
20,2022-05-02T00:19:00,0.2,静穏,0.6,東北東,7.2,93.8,0,0,0,4
21,2022-05-02T00:20:00,0.2,静穏,0.6,東北東,7.2,94,0,0,0,4
22,2022-05-02T00:21:00,0.3,東北東,0.6,東北東,7,93.4,0,0,0,4
23,2022-05-02T00:22:00,0.3,東,0.8,東,6.9,93.2,0,0,0,4
24,2022-05-02T00:23:00,0.3,東北東,0.8,東,6.9,93.3,0,0,0,4
25,2022-05-02T00:24:00,0.3,東北東,0.8,東,6.9,93.7,0,0,0,4
26,2022-05-02T00:25:00,0.3,東北東,0.8,東,6.9,93.9,0,0,0,4
27,2022-05-02T00:26:00,0.4,東北東,1.1,東北東,6.8,93.5,0,0,0,4
28,2022-05-02T00:27:00,0.4,東北東,1.1,東北東,6.8,93.9,0,0,0,4
29,2022-05-02T00:28:00,0.5,東北東,1.1,東北東,6.7,94,0,0,0,4
30,2022-05-02T00:29:00,0.5,東北東,1.1,東北東,6.7,94.2,0,0,0,4
31,2022-05-02T00:30:00,0.6,東北東,1.2,東,6.7,94.4,0,0,0,4
32,2022-05-02T00:31:00,0.6,東北東,1.2,東,6.7,94.5,0,0,0,4
33,2022-05-02T00:32:00,0.6,東北東,1.2,東,6.7,94.7,0,0,0,4
34,2022-05-02T00:33:00,0.6,東北東,1.2,東,6.8,95,0,0,0,4
35,2022-05-02T00:34:00,0.6,東北東,1.2,東,6.8,95,0,0,0,4
36,2022-05-02T00:35:00,0.6,東,1.2,東,6.9,95.2,0,0,0,4
37,2022-05-02T00:36:00,0.6,東,1.2,東,7.1,95.5,0,0,0,4
38,2022-05-02T00:37:00,0.5,東,1.2,東,7.3,95.7,0,0,0,4
39,2022-05-02T00:38:00,0.5,東,1.2,東,7.1,95.4,0,0,0,4
40,2022-05-02T00:39:00,0.5,東南東,1.2,東,7.1,95.3,0,0,0,4
41,2022-05-02T00:40:00,0.4,東南東,1.2,東,7.2,95.4,0,0,0,4
42,2022-05-02T00:41:00,0.4,東南東,0.8,東北東,7.3,95.4,0,0,0,4
43,2022-05-02T00:42:00,0.3,南東,0.7,南,6.9,94.8,0,0,0,4
44,2022-05-02T00:43:00,0.4,南東,1,南,6.8,94.3,0,0,0,4
45,2022-05-02T00:44:00,0.4,南南東,1,南,6.7,94.1,0,0,0,4
46,2022-05-02T00:45:00,0.4,南南東,1,南,6.7,94.2,0,0,0,4
47,2022-05-02T00:46:00,0.4,南南東,1,南,6.7,94.5,0,0,0,4
48,2022-05-02T00:47:00,0.4,南南東,1,南,6.7,94.6,0,0,0,4
49,2022-05-02T00:48:00,0.4,南南東,1,南,6.6,94.7,0,0,0,4
50,2022-05-02T00:49:00,0.4,南南東,1,南,6.7,94.7,0,0,0,4
51,2022-05-02T00:50:00,0.4,南南東,1,南,6.6,94.9,0,0,0,4
52,2022-05-02T00:51:00,0.4,南南東,1,南,6.6,94.9,0,0,0,4
53,2022-05-02T00:52:00,0.4,南南東,1,南,6.6,95.1,0,0,0,4
54,2022-05-02T00:53:00,0.5,南南東,1.3,南,6.6,95.1,0,0,0,4
55,2022-05-02T00:54:00,0.5,南南東,1.3,南,6.6,95.1,0,0,0,4
56,2022-05-02T00:55:00,0.5,南南東,1.3,南,6.6,95.1,0,0,0,4
57,2022-05-02T00:56:00,0.5,南南東,1.3,南,6.6,95.2,0,0,0,4
58,2022-05-02T00:57:00,0.4,南南東,1.3,南,6.6,95.2,0,0,0,4
59,2022-05-02T00:58:00,0.4,南南東,1.3,南,6.6,95.3,0,0,0,4
60,2022-05-02T00:59:00,0.5,南南東,1.3,南,6.5,95.2,0,0,0,4
61,2022-05-02T01:00:00,0.5,南東,1.3,南,6.4,95,0,0,0,4
62,2022-05-02T01:01:00,0.5,南東,1.3,南,6.4,95.1,0,0,0,4
63,2022-05-02T01:02:00,0.5,南東,1.3,南,6.4,95.2,0,0,0,4
64,2022-05-02T01:03:00,0.5,東南東,1.2,南,6.4,95.2,0,0,0,4
65,2022-05-02T01:04:00,0.5,東南東,1.2,東,6.4,95.3,0,0,0,4
66,2022-05-02T01:05:00,0.5,東南東,1.2,東,6.5,95.4,0,0,0,4
67,2022-05-02T01:06:00,0.6,東南東,1.2,東,6.5,95.5,0,0,0,4
68,2022-05-02T01:07:00,0.6,東,1.2,東,6.6,95.6,0,0,0,4
69,2022-05-02T01:08:00,0.6,東,1.2,東,6.7,95.7,0,0,0,4
70,2022-05-02T01:09:00,0.6,東,1.2,東,6.8,95.9,0,0,0,4
71,2022-05-02T01:10:00,0.5,東南東,1.2,東,6.8,95.8,0,0,0,4
72,2022-05-02T01:11:00,0.5,東南東,1.2,東,6.8,95.7,0,0,0,4
73,2022-05-02T01:12:00,0.4,南東,1.2,東,6.9,95.8,0,0,0,4
74,2022-05-02T01:13:00,0.4,南東,1.2,東,6.9,95.8,0,0,0,4
75,2022-05-02T01:14:00,0.4,南南東,1.2,南東,6.9,95.7,0,0,0,4
76,2022-05-02T01:15:00,0.3,南南東,1.2,南東,6.9,95.7,0,0,0,4
77,2022-05-02T01:16:00,0.2,静穏,1.1,東南東,6.9,95.6,0,0,0,4
78,2022-05-02T01:17:00,0.1,静穏,0.7,南東,6.8,95.4,0,0,0,4
79,2022-05-02T01:18:00,0.1,静穏,0.4,南南東,6.9,95.5,0,0,0,4
80,2022-05-02T01:19:00,0.1,静穏,0.4,南南東,6.9,95.6,0,0,0,4
81,2022-05-02T01:20:00,0.1,静穏,0.4,南南東,6.7,95.2,0,0,0,4
82,2022-05-02T01:21:00,0.1,静穏,0.4,南南東,6.6,94.9,0,0,0,4
83,2022-05-02T01:22:00,0.1,静穏,0.4,南南東,6.7,95.2,0,0,0,4
84,2022-05-02T01:23:00,0,静穏,0.4,南,6.9,95.4,0,0,0,4
85,2022-05-02T01:24:00,0,静穏,0.4,南,6.9,95.3,0,0,0,4
86,2022-05-02T01:25:00,0,静穏,0.4,南,6.7,95,0,0,0,4
87,2022-05-02T01:26:00,0.1,静穏,0.4,南,6.6,94.5,0,0,0,4
88,2022-05-02T01:27:00,0.1,静穏,0.4,南,6.5,94,0,0,0,4
89,2022-05-02T01:28:00,0.1,静穏,0.7,北東,6.4,93.9,0,0,0,4
90,2022-05-02T01:29:00,0.1,静穏,0.8,東北東,6.3,94,0,0,0,4
91,2022-05-02T01:30:00,0.2,静穏,0.8,東北東,6.4,94.3,0,0,0,4
92,2022-05-02T01:31:00,0.2,静穏,0.8,東北東,6.4,94.5,0,0,0,4
93,2022-05-02T01:32:00,0.2,静穏,0.8,東北東,6.3,94.5,0,0,0,4
94,2022-05-02T01:33:00,0.3,北東,0.8,東北東,6.3,94.6,0,0,0,4
95,2022-05-02T01:34:00,0.3,北東,0.8,東北東,6.3,94.5,0,0,0,4
96,2022-05-02T01:35:00,0.3,東北東,0.8,東北東,6.7,95.3,0,0,0,4
97,2022-05-02T01:36:00,0.3,東北東,0.8,東北東,6.7,95.4,0,0,0,4
98,2022-05-02T01:37:00,0.3,東北東,0.8,東北東,6.6,95.1,0,0,0,4
99,2022-05-02T01:38:00,0.2,静穏,0.8,東北東,6.5,95,0,0,0,4
100,2022-05-02T01:39:00,0.2,静穏,0.5,東北東,6.4,94.7,0,0,0,4
101,2022-05-02T01:40:00,0.2,静穏,0.5,東北東,6.4,94.7,0,0,0,4
102,2022-05-02T01:41:00,0.2,静穏,0.5,東北東,6.4,94.8,0,0,0,4
103,2022-05-02T01:42:00,0.2,静穏,0.5,東北東,6.5,94.8,0,0,0,4
104,2022-05-02T01:43:00,0.2,静穏,0.5,南西,6.5,95.2,0,0,0,4
105,2022-05-02T01:44:00,0.2,静穏,0.5,南西,6.4,94.5,0,0,0,4
106,2022-05-02T01:45:00,0.2,静穏,0.5,南西,6.3,94.4,0,0,0,4
107,2022-05-02T01:46:00,0.2,静穏,0.5,南西,6.3,94.5,0,0,0,4
108,2022-05-02T01:47:00,0.2,静穏,0.5,南西,6.3,94.3,0,0,0,4
109,2022-05-02T01:48:00,0.2,静穏,0.5,南西,6.4,94.9,0,0,0,4
110,2022-05-02T01:49:00,0.2,静穏,0.5,南西,6.4,94.8,0,0,0,4
111,2022-05-02T01:50:00,0.1,静穏,0.5,南西,6.5,95.1,0,0,0,4
112,2022-05-02T01:51:00,0.1,静穏,0.5,南西,6.6,95.2,0,0,0,4
113,2022-05-02T01:52:00,0.1,静穏,0.5,南西,6.6,95.2,0,0,0,4
114,2022-05-02T01:53:00,0.1,静穏,0.5,南南西,6.5,94.8,0,0,0,4
115,2022-05-02T01:54:00,0.1,静穏,0.4,南南西,6.4,94.4,0,0,0,4
116,2022-05-02T01:55:00,0.1,静穏,0.4,南南西,6.4,94.7,0,0,0,4
117,2022-05-02T01:56:00,0.1,静穏,0.4,南南西,6.6,95.1,0,0,0,4
118,2022-05-02T01:57:00,0.1,静穏,0.4,南南西,6.6,94.9,0,0,0,4
119,2022-05-02T01:58:00,0.1,静穏,0.3,南西,6.5,94.6,0,0,0,4
120,2022-05-02T01:59:00,0.1,静穏,0.3,南西,6.5,94.7,0,0,0,4
121,2022-05-02T02:00:00,0.1,静穏,0.5,東,6.3,94.2,0,0,0,4
122,2022-05-02T02:01:00,0.1,静穏,0.6,東北東,6.2,93.7,0,0,0,4
123,2022-05-02T02:02:00,0.1,静穏,0.6,東北東,6.1,93.6,0,0,0,4
124,2022-05-02T02:03:00,0.2,静穏,1,東北東,6,93.6,0,0,0,4
125,2022-05-02T02:04:00,0.3,東南東,1.4,東,5.9,93.6,0,0,0,4
126,2022-05-02T02:05:00,0.4,東,1.4,東,5.9,93.8,0,0,0,4
127,2022-05-02T02:06:00,0.5,東,1.4,東,5.9,94.1,0,0,0,4
128,2022-05-02T02:07:00,0.6,東北東,1.4,東,5.9,94.2,0,0,0,4
129,2022-05-02T02:08:00,0.7,東北東,1.4,東,5.8,94.2,0,0,0,4
130,2022-05-02T02:09:00,0.7,東北東,1.4,東,5.8,94.4,0,0,0,4
131,2022-05-02T02:10:00,0.7,東北東,1.4,東,5.8,94.5,0,0,0,4
132,2022-05-02T02:11:00,0.7,東北東,1.4,東,5.9,94.9,0,0,0,4
133,2022-05-02T02:12:00,0.8,東北東,1.4,東,5.9,95.1,0,0,0,4
134,2022-05-02T02:13:00,0.7,東北東,1.4,東,6.1,95.4,0,0,0,4
135,2022-05-02T02:14:00,0.6,東北東,1.4,東北東,6.1,95.4,0,0,0,4
136,2022-05-02T02:15:00,0.6,東北東,1.2,東北東,6,95.2,0,0,0,4
137,2022-05-02T02:16:00,0.5,東北東,1.1,東,5.9,95.1,0,0,0,4
138,2022-05-02T02:17:00,0.5,東北東,1,東北東,5.9,95.1,0,0,0,4
139,2022-05-02T02:18:00,0.4,東北東,1,東北東,6,95.3,0,0,0,4
140,2022-05-02T02:19:00,0.4,東北東,0.8,東,6,95.3,0,0,0,4
141,2022-05-02T02:20:00,0.4,東,0.8,東,6,95.3,0,0,0,4
142,2022-05-02T02:21:00,0.3,東,0.8,東,6.2,95.6,0,0,0,4
143,2022-05-02T02:22:00,0.3,東,0.8,東,6,95.4,0,0,0,4
144,2022-05-02T02:23:00,0.3,東南東,0.8,東,6,95.3,0,0,0,4
145,2022-05-02T02:24:00,0.3,東南東,0.8,東,6,95.4,0,0,0,4
146,2022-05-02T02:25:00,0.3,南東,0.8,東,6,95.3,0,0,0,4
147,2022-05-02T02:26:00,0.3,南東,0.8,東,5.9,95.2,0,0,0,4
148,2022-05-02T02:27:00,0.3,南東,0.8,東,5.9,95.2,0,0,0,4
149,2022-05-02T02:28:00,0.2,静穏,0.7,南南東,5.9,95.2,0,0,0,4
150,2022-05-02T02:29:00,0.2,静穏,0.7,南南東,5.8,95.1,0,0,0,4
151,2022-05-02T02:30:00,0.3,南南東,0.7,南南東,6,95.3,0,0,0,4
152,2022-05-02T02:31:00,0.3,南南東,1.1,南,5.8,95.3,0,0,0,4
153,2022-05-02T02:32:00,0.3,南南東,1.1,南,5.8,95.2,0,0,0,4
154,2022-05-02T02:33:00,0.4,南,1.1,南,5.8,95.2,0,0,0,4
155,2022-05-02T02:34:00,0.4,南,1.1,南,5.8,95.3,0,0,0,4
156,2022-05-02T02:35:00,0.3,南,1.1,南,5.9,95.6,0,0,0,4
157,2022-05-02T02:36:00,0.3,南,1.1,南,5.9,95.5,0,0,0,4
158,2022-05-02T02:37:00,0.3,南,1.1,南,5.9,95.5,0,0,0,4
159,2022-05-02T02:38:00,0.3,南南東,1.1,南,5.9,95.6,0,0,0,4
160,2022-05-02T02:39:00,0.3,南南東,1.1,南,6,95.6,0,0,0,4
161,2022-05-02T02:40:00,0.3,南南東,1.1,南,6.1,95.8,0,0,0,4
162,2022-05-02T02:41:00,0.2,静穏,1.1,南,5.9,95.5,0,0,0,4
163,2022-05-02T02:42:00,0.2,静穏,0.8,南東,5.8,95.3,0,0,0,4
164,2022-05-02T02:43:00,0.1,静穏,0.7,南,5.9,95.5,0,0,0,4
165,2022-05-02T02:44:00,0.1,静穏,0.5,南南東,5.8,95.4,0,0,0,4
166,2022-05-02T02:45:00,0.1,静穏,0.3,西南西,6,95.6,0,0,0,4
167,2022-05-02T02:46:00,0.1,静穏,0.3,西南西,6,95.7,0,0,0,4
168,2022-05-02T02:47:00,0.1,静穏,0.3,西南西,6,95.6,0,0,0,4
169,2022-05-02T02:48:00,0.1,静穏,0.3,西南西,6,95.5,0,0,0,4
170,2022-05-02T02:49:00,0.1,静穏,0.3,西南西,6,95.5,0,0,0,4
171,2022-05-02T02:50:00,0.1,静穏,0.4,南西,6,95.5,0,0,0,4
172,2022-05-02T02:51:00,0.1,静穏,0.4,南西,6,95.5,0,0,0,4
173,2022-05-02T02:52:00,0.1,静穏,0.4,南西,6,95.4,0,0,0,4
174,2022-05-02T02:53:00,0.1,静穏,0.4,南西,6.1,95.5,0,0,0,4
175,2022-05-02T02:54:00,0.1,静穏,0.4,南西,6.3,95.8,0,0,0,4
176,2022-05-02T02:55:00,0.1,静穏,0.4,南西,6.2,95.6,0,0,0,4
177,2022-05-02T02:56:00,0.1,静穏,0.4,南西,6,95.3,0,0,0,4
178,2022-05-02T02:57:00,0.1,静穏,0.4,南西,5.9,95.1,0,0,0,4
179,2022-05-02T02:58:00,0.1,静穏,0.5,南南西,6,95.1,0,0,0,4
180,2022-05-02T02:59:00,0.1,静穏,0.5,南南西,5.9,95.1,0,0,0,4
181,2022-05-02T03:00:00,0.1,静穏,0.5,南南西,6,95.2,0,0,0,4
182,2022-05-02T03:01:00,0.1,静穏,0.5,南南西,5.9,95,0,0,0,4
183,2022-05-02T03:02:00,0.1,静穏,0.5,南南西,6,95.2,0,0,0,4
184,2022-05-02T03:03:00,0.1,静穏,0.5,南南西,6.3,95.5,0,0,0,4
185,2022-05-02T03:04:00,0.1,静穏,0.5,南南西,6.4,95.7,0,0,0,4
186,2022-05-02T03:05:00,0.1,静穏,0.5,南南西,6.4,95.6,0,0,0,4
187,2022-05-02T03:06:00,0.1,静穏,0.5,南南西,6.4,95.4,0,0,0,4
188,2022-05-02T03:07:00,0,静穏,0.5,南南西,6.3,95.2,0,0,0,4
189,2022-05-02T03:08:00,0,静穏,0.3,南西,6.3,95.1,0,0,0,4
190,2022-05-02T03:09:00,0,静穏,0.4,南西,6.2,95,0,0,0,4
191,2022-05-02T03:10:00,0,静穏,0.4,南西,6.2,94.8,0,0,0,4
192,2022-05-02T03:11:00,0.1,静穏,0.5,南南西,6.1,94.5,0,0,0,4
193,2022-05-02T03:12:00,0.1,静穏,0.5,南南西,6.1,94.6,0,0,0,4
194,2022-05-02T03:13:00,0.1,静穏,0.5,南南西,6.1,94.4,0,0,0,4
195,2022-05-02T03:14:00,0.1,静穏,0.5,南南西,6.3,95,0,0,0,4
196,2022-05-02T03:15:00,0.1,静穏,0.5,南南西,6.3,95.1,0,0,0,4
197,2022-05-02T03:16:00,0.2,静穏,0.5,南南西,6.3,95.1,0,0,0,4
198,2022-05-02T03:17:00,0.2,静穏,0.6,南南西,6.4,95,0,0,0,4
199,2022-05-02T03:18:00,0.2,静穏,0.7,南南西,6.3,94.9,0,0,0,4
200,2022-05-02T03:19:00,0.3,南南西,0.9,南西,6.3,94.6,0,0,0,4
201,2022-05-02T03:20:00,0.3,南南西,0.9,南西,6.2,94.5,0,0,0,4
202,2022-05-02T03:21:00,0.3,南南西,0.9,南西,6.2,94.6,0,0,0,4
203,2022-05-02T03:22:00,0.3,南西,0.9,南西,6.2,94.7,0,0,0,4
204,2022-05-02T03:23:00,0.3,南南西,0.9,南西,6.3,94.9,0,0,0,4
205,2022-05-02T03:24:00,0.3,南南西,0.9,南西,6.4,95.1,0,0,0,4
206,2022-05-02T03:25:00,0.3,南西,0.9,南西,6.4,95.2,0,0,0,4
207,2022-05-02T03:26:00,0.2,静穏,0.9,南西,6.4,94.9,0,0,0,4
208,2022-05-02T03:27:00,0.2,静穏,0.9,南西,6.3,94.8,0,0,0,4
209,2022-05-02T03:28:00,0.2,静穏,0.9,南西,6.3,95,0,0,0,4
210,2022-05-02T03:29:00,0.2,静穏,0.7,南西,6.3,94.9,0,0,0,4
211,2022-05-02T03:30:00,0.1,静穏,0.7,南西,6.3,95,0,0,0,4
212,2022-05-02T03:31:00,0.1,静穏,0.6,南西,6.3,95,0,0,0,4
213,2022-05-02T03:32:00,0.1,静穏,0.4,南西,6.3,95.1,0,0,0,4
214,2022-05-02T03:33:00,0.1,静穏,0.6,北西,6.3,95.1,0,0,0,4
215,2022-05-02T03:34:00,0.1,静穏,0.6,北西,6.3,95.2,0,0,0,4
216,2022-05-02T03:35:00,0.1,静穏,0.6,北西,6.3,95.2,0,0,0,4
217,2022-05-02T03:36:00,0.1,静穏,0.6,北西,6.4,95.2,0,0,0,4
218,2022-05-02T03:37:00,0.1,静穏,0.6,北西,6.4,95.3,0,0,0,4
219,2022-05-02T03:38:00,0.1,静穏,0.6,北西,6.4,95.4,0,0,0,4
220,2022-05-02T03:39:00,0.1,静穏,0.6,北西,6.3,95.2,0,0,0,4
221,2022-05-02T03:40:00,0.1,静穏,0.6,北西,6.1,94.7,0,0,0,4
222,2022-05-02T03:41:00,0.1,静穏,0.7,北北東,6.2,95,0,0,0,4
223,2022-05-02T03:42:00,0.1,静穏,0.8,東,6.1,95.1,0,0,0,4
224,2022-05-02T03:43:00,0.1,静穏,0.8,東,6.2,95.3,0,0,0,4
225,2022-05-02T03:44:00,0.1,静穏,0.8,東,6.1,95.2,0,0,0,4
226,2022-05-02T03:45:00,0.2,静穏,0.9,東,5.9,94.9,0,0,0,4
227,2022-05-02T03:46:00,0.2,静穏,0.9,東,6,95.3,0,0,0,4
228,2022-05-02T03:47:00,0.3,東北東,0.9,東,5.9,95.4,0,0,0,4
229,2022-05-02T03:48:00,0.4,東北東,1.2,東北東,5.8,95.1,0,0,0,4
230,2022-05-02T03:49:00,0.4,東北東,1.2,東北東,5.9,95.3,0,0,0,4
231,2022-05-02T03:50:00,0.5,東北東,1.2,東北東,5.7,95.2,0,0,0,4
232,2022-05-02T03:51:00,0.6,東北東,1.2,東北東,5.7,95.2,0,0,0,4
233,2022-05-02T03:52:00,0.6,東北東,1.2,東北東,5.7,95.4,0,0,0,4
234,2022-05-02T03:53:00,0.7,東北東,1.2,東北東,5.7,95.4,0,0,0,4
235,2022-05-02T03:54:00,0.7,東北東,1.3,北北東,5.7,95.7,0,0,0,4
236,2022-05-02T03:55:00,0.7,北東,1.3,北北東,5.7,95.7,0,0,0,4
237,2022-05-02T03:56:00,0.8,北東,1.3,北北東,5.7,95.8,0,0,0,4
238,2022-05-02T03:57:00,0.8,北東,1.3,北北東,5.7,95.8,0,0,0,4
239,2022-05-02T03:58:00,0.8,北東,1.3,北北東,5.7,95.7,0,0,0,4
240,2022-05-02T03:59:00,0.8,北東,1.3,北北東,5.7,95.9,0,0,0,4
241,2022-05-02T04:00:00,0.7,北東,1.3,北北東,5.7,96,0,0,0,4
242,2022-05-02T04:01:00,0.7,北東,1.3,北北東,5.7,95.9,0,0,0,4
243,2022-05-02T04:02:00,0.7,北東,1.3,北北東,5.7,95.9,0,0,0,4
244,2022-05-02T04:03:00,0.7,北東,1.3,北北東,5.7,96,0,0,0,4
245,2022-05-02T04:04:00,0.7,北東,1.2,北北東,5.7,96.2,0,0,0,4
246,2022-05-02T04:05:00,0.7,北東,1.2,北北東,5.8,96.2,0,0,0,4
247,2022-05-02T04:06:00,0.6,北東,1.2,北北東,5.8,96.3,0,0,0,4
248,2022-05-02T04:07:00,0.6,北東,1.1,北東,5.7,96.1,0,0,0,4
249,2022-05-02T04:08:00,0.6,北東,1.1,北東,5.7,96.2,0,0,0,4
250,2022-05-02T04:09:00,0.6,東北東,1.1,北東,5.9,96.5,0,0,0,4
